Overview Statistics Trail Chart Weather Telemetry Raw packets
 

This is the latest recevied weather packets stored in our database for station/object WX5RP. If no packets are shown the sender has not sent any weather packets the latest 10 day(s).

<< 38 39 40 41 42 43 44 >>
Time Temp. Humidity Pressure Rain* Wind** Luminosity Snow
1777413316 16.67° C 17% 1019.4 hPa 0 mm - 805 W/m² -
1777412717 16.67° C 17% 1019.4 hPa 0 mm - 803 W/m² -
1777412116 16.67° C 19% 1019.4 hPa 0 mm - 289 W/m² -
1777411516 16.11° C 19% 1019.4 hPa 0 mm - 773 W/m² -
1777410916 16.11° C 19% 1019.7 hPa 0 mm - 772 W/m² -
1777410316 16.11° C 20% 1019.2 hPa 0 mm - 911 W/m² -
1777409717 15.56° C 19% 1019.5 hPa 0 mm - 787 W/m² -
1777409116 16.11° C 18% 1019.5 hPa 0 mm - 840 W/m² -
1777408516 15.56° C 20% 1019.7 hPa 0 mm - 785 W/m² -
1777407918 16.11° C 22% 1020.5 hPa 0 mm - 1023 W/m² -
1777407316 15° C 22% 1019.9 hPa 0 mm - 952 W/m² -
1777406716 15° C 21% 1020 hPa 0 mm - 1007 W/m² -
1777406116 15.56° C 21% 1020.2 hPa 0 mm - 981 W/m² -
1777405516 14.44° C 26% 1020 hPa 0 mm - 991 W/m² -
1777404916 14.44° C 25% 1019.8 hPa 0 mm - 977 W/m² -
1777404316 15° C 22% 1020.6 hPa 0 mm - 971 W/m² -
1777403715 13.89° C 25% 1020.4 hPa 0 mm - 925 W/m² -
1777403115 14.44° C 23% 1020.5 hPa 0 mm - 939 W/m² -
1777402515 13.89° C 25% 1020.6 hPa 0 mm - 930 W/m² -
1777401916 13.89° C 26% 1020.6 hPa 0 mm - 936 W/m² -
1777401315 13.89° C 25% 1020.7 hPa 0 mm - 889 W/m² -
1777400715 13.33° C 26% 1020.7 hPa 0 mm - 911 W/m² -
1777400115 12.78° C 28% 1020.1 hPa 0 mm - 896 W/m² -
1777399515 12.78° C 27% 1021.3 hPa 0 mm - 877 W/m² -
1777398916 12.78° C 26% 1021.3 hPa 0 mm - 859 W/m² -

* Rain latest hour (hover to see other rain measurements)
** Current wind speed in m/s (hover to see current wind gust speed)